Simultaneous Nadir Overpasses (SNOs) Predictions

Prediction of SNOs between GOES-15 and METOP-A Satellite Orbit:

Table of predicted SNOs for the next 14.0 days since TLE Epoch: 6/1/2018
Index Date Time (GOES-15) GOES-15 Lat,Lon METOP-A Lat,Lon Distance(km) Time Diff (sec)
1 06/02/2018 18:37:04 -0.17,-134.91 0.59,-138.45 403.00 80
2 06/03/2018 18:13:43 -0.18,-134.86 -0.51,-133.45 161.46 80
3 06/05/2018 06:35:20 0.18,-134.75 -0.53,-138.04 374.37 80
4 06/06/2018 06:11:58 0.19,-134.71 0.57,-133.04 189.93 80
5 06/07/2018 18:33:28 -0.18,-134.69 0.45,-137.61 332.52 80
6 06/08/2018 18:10:06 -0.19,-134.64 -0.65,-132.61 231.36 80
7 06/10/2018 06:31:43 0.18,-134.52 -0.44,-137.19 305.52 80
8 06/11/2018 06:08:22 0.19,-134.47 0.71,-132.21 257.95 80
9 06/12/2018 18:29:50 -0.17,-134.43 0.36,-136.76 265.82 80
10 06/13/2018 18:06:29 -0.19,-134.37 -0.74,-131.76 296.94 80
11 06/15/2018 06:28:06 0.18,-134.23 -0.30,-136.36 241.72 80




NCC Satellite Simultaneous Nadir Overpasses (SNOs) Prediction Service
